Current weather by "City, St" or "zip code"  
 

Current Conditions: Decatur, Pryor Field, AL

Fair


64.0 F

Last Updated on Sep 18 2020, 2:53 am CDT
Humidity: 90%
Wind Speed: N 3.5 mph
Barometer 29.94 in
Dewpoint: 61.0 F
Visibility: 10.00 mi
Precip: --
Heat Index: NA
Wind Chill: NA
Current conditions at:

Decatur, Pryor Field, AL (KDCU)

Lat: 34.65806 Lon: 86.94333

Local Radar Image active severe weather and emergency alerts image image weather storm and storm spotter reports image weather observation monitoring service image
Local
Radar
Active
Alerts
Storm Reports Obs
Monitoring

Sign-up For Email & Text Message Weather Alert Notification Services



Advertise Here

Observation History for Decatur, Pryor Field, AL


Time Wind
(mph)
Vis
(mi)
Weather Precip (in) Temperature (F) Relative
Humidity
Wind
Chill
(F)
Heat
Index
(F)
Pressure
Air Dwpt altimeter
(in)
sea level
(mb)
Rmks
2:53 am CDT N 3.5 10.00 Fair -- 64.0 61.0 90% NA NA 29.94 1013.0
1:53 am CDT N 5.8 10.00 Fair -- 65.0 61.0 87% NA NA 29.93 1012.8
12:53 am CDT N 6.9 10.00 Fair -- 69.0 62.1 78% NA NA 29.91 1012.2
11:53 pm CDT N 9.2 10.00 Fair -- 70.0 63.0 79% NA NA 29.92 1012.6
10:53 pm CDT N 8.1 10.00 Fair -- 70.0 64.0 82% NA NA 29.92 1012.5
9:53 pm CDT N 8.1 10.00 NULL -- 72.0 64.0 76% NA NA 29.92 1012.3
5:53 pm CDT N 12.7 G 20.7 10.00 Fair -- 82.0 66.0 58% NA 84 29.85 1010.2
4:53 pm CDT N 16.1 10.00 Fair -- 83.0 64.9 55% NA 85 29.84 1009.8
3:53 pm CDT N 16.1 10.00 Fair -- 87.0 66.0 50% NA 89 29.83 1009.4
2:53 pm CDT N 12.7 G 21.9 10.00 Partly Cloudy -- 86.0 66.9 53% NA 89 29.84 1009.6
1:53 pm CDT N 12.7 10.00 Overcast -- 87.0 66.0 50% NA 89 29.85 1010.1
12:53 pm CDT N 11.5 G 20.7 10.00 Mostly Cloudy -- 86.0 64.9 49% NA 88 29.86 1010.4
11:53 am CDT NE 11.5 G 21.9 10.00 Partly Cloudy -- 85.0 64.9 51% NA 87 29.87 1010.7
10:53 am CDT NE 12.7 G 20.7 10.00 Mostly Cloudy -- 81.0 66.9 62% NA 83 29.89 1011.3
9:53 am CDT NE 12.7 10.00 Mostly Cloudy -- 80.0 68.0 67% NA 83 29.88 1011.2
8:53 am CDT N 8.1 10.00 Fair -- 77.0 69.1 77% NA NA 29.87 1010.9
7:53 am CDT N 6.9 10.00 Overcast -- 72.0 69.1 91% NA NA 29.86 1010.5
6:53 am CDT N 5.8 10.00 Overcast -- 71.0 68.0 90% NA NA 29.85 1010.3
5:53 am CDT N 5.8 10.00 Mostly Cloudy -- 71.0 68.0 90% NA NA 29.84 1009.9
4:53 am CDT N 5.8 10.00 Overcast -- 71.0 68.0 90% NA NA 29.84 1009.9
3:53 am CDT N 6.9 10.00 Overcast -- 72.0 69.1 91% NA NA 29.86 1010.6

Regional Weather Observation


Decatur, Pryor Field, AL (KDCU)

Fair
64.0 F

Huntsville, Huntsville International / Jones Field, AL (KHSV)

Fair
64.0 F

Redstone Airfield, AL (KHUA)

Fair
66.0 F

Huntsville, Madison County Executive Airport, AL (KMDQ)

Fair
65.0 F

Haleyville, Posey Field Airport, AL (K1M4)

Fair
62.0 F

Folsom Field Airport, AL (K3A1)

Partly Cloudy
82.0 F